Year,Month,Day,Hour,Minute,Value (Times are PST for temperature in C)
2011,08,20,00,00,14.20
2011,08,20,00,01,14.20
2011,08,20,00,02,14.20
2011,08,20,00,03,14.20
2011,08,20,00,04,14.20
2011,08,20,00,05,14.10
2011,08,20,00,06,14.10
2011,08,20,00,07,14.10
2011,08,20,00,08,14.10
2011,08,20,00,09,14.10
2011,08,20,00,10,14.10
2011,08,20,00,11,14.10
2011,08,20,00,12,14.10
2011,08,20,00,13,14.10
2011,08,20,00,14,14.10
2011,08,20,00,15,14.10
2011,08,20,00,16,14.10
2011,08,20,00,17,14.10
2011,08,20,00,18,14.00
2011,08,20,00,19,14.00
2011,08,20,00,20,14.00
2011,08,20,00,21,14.00
2011,08,20,00,22,13.90
2011,08,20,00,23,13.90
2011,08,20,00,24,13.90
2011,08,20,00,25,13.80
2011,08,20,00,26,13.80
2011,08,20,00,27,13.80
2011,08,20,00,28,13.80
2011,08,20,00,29,13.80
2011,08,20,00,30,13.70
2011,08,20,00,31,13.70
2011,08,20,00,32,13.70
2011,08,20,00,33,13.70
2011,08,20,00,34,13.70
2011,08,20,00,35,13.70
2011,08,20,00,36,13.70
2011,08,20,00,37,13.70
2011,08,20,00,38,13.70
2011,08,20,00,39,13.60
2011,08,20,00,40,13.60
2011,08,20,00,41,13.60
2011,08,20,00,42,13.60
2011,08,20,00,43,13.60
2011,08,20,00,44,13.60
2011,08,20,00,45,13.60
2011,08,20,00,46,13.60
2011,08,20,00,47,13.60
2011,08,20,00,48,13.60
2011,08,20,00,49,13.60
2011,08,20,00,50,13.60
2011,08,20,00,51,13.60
2011,08,20,00,52,13.60
2011,08,20,00,53,13.60
2011,08,20,00,54,13.60
2011,08,20,00,55,13.60
2011,08,20,00,56,13.60
2011,08,20,00,57,13.60
2011,08,20,00,58,13.60
2011,08,20,00,59,13.50
2011,08,20,01,00,13.50
2011,08,20,01,01,13.50
2011,08,20,01,02,13.50
2011,08,20,01,03,13.50
2011,08,20,01,04,13.50
2011,08,20,01,05,13.50
2011,08,20,01,06,13.50
2011,08,20,01,07,13.50
2011,08,20,01,08,13.50
2011,08,20,01,09,13.50
2011,08,20,01,10,13.50
2011,08,20,01,11,13.50
2011,08,20,01,12,13.50
2011,08,20,01,13,13.50
2011,08,20,01,14,13.50
2011,08,20,01,15,13.50
2011,08,20,01,16,13.50
2011,08,20,01,17,13.50
2011,08,20,01,18,13.50
2011,08,20,01,19,13.50
2011,08,20,01,20,13.40
2011,08,20,01,21,13.40
2011,08,20,01,22,13.40
2011,08,20,01,23,13.40
2011,08,20,01,24,13.40
2011,08,20,01,25,13.40
2011,08,20,01,26,13.40
2011,08,20,01,27,13.40
2011,08,20,01,28,13.30
2011,08,20,01,29,13.30
2011,08,20,01,30,13.30
2011,08,20,01,31,13.30
2011,08,20,01,32,13.30
2011,08,20,01,33,13.30
2011,08,20,01,34,13.30
2011,08,20,01,35,13.30
2011,08,20,01,36,13.30
2011,08,20,01,37,13.30
2011,08,20,01,38,13.30
2011,08,20,01,39,13.30
2011,08,20,01,40,13.30
2011,08,20,01,41,13.30
2011,08,20,01,42,13.30
2011,08,20,01,43,13.20
2011,08,20,01,44,13.20
2011,08,20,01,45,13.20
2011,08,20,01,46,13.20
2011,08,20,01,47,13.20
2011,08,20,01,48,13.20
2011,08,20,01,49,13.20
2011,08,20,01,50,13.10
2011,08,20,01,51,13.10
2011,08,20,01,52,13.10
2011,08,20,01,53,13.10
2011,08,20,01,54,13.10
2011,08,20,01,55,13.00
2011,08,20,01,56,13.00
2011,08,20,01,57,13.00
2011,08,20,01,58,13.00
2011,08,20,01,59,13.00
2011,08,20,02,00,12.90
2011,08,20,02,01,12.90
2011,08,20,02,02,12.90
2011,08,20,02,03,12.90
2011,08,20,02,04,12.90
2011,08,20,02,05,12.90
2011,08,20,02,06,12.90
2011,08,20,02,07,12.90
2011,08,20,02,08,12.90
2011,08,20,02,09,12.90
2011,08,20,02,10,12.90
2011,08,20,02,11,12.90
2011,08,20,02,12,12.90
2011,08,20,02,13,12.90
2011,08,20,02,14,12.90
2011,08,20,02,15,12.90
2011,08,20,02,16,12.90
2011,08,20,02,17,12.90
2011,08,20,02,18,12.90
2011,08,20,02,19,12.90
2011,08,20,02,20,12.80
2011,08,20,02,21,12.80
2011,08,20,02,22,12.80
2011,08,20,02,23,12.80
2011,08,20,02,24,12.80
2011,08,20,02,25,12.80
2011,08,20,02,26,12.70
2011,08,20,02,27,12.70
2011,08,20,02,28,12.70
2011,08,20,02,29,12.70
2011,08,20,02,30,12.70
2011,08,20,02,31,12.70
2011,08,20,02,32,12.70
2011,08,20,02,33,12.70
2011,08,20,02,34,12.70
2011,08,20,02,35,12.70
2011,08,20,02,36,12.70
2011,08,20,02,37,12.70
2011,08,20,02,38,12.70
2011,08,20,02,39,12.70
2011,08,20,02,40,12.70
2011,08,20,02,41,12.70
2011,08,20,02,42,12.70
2011,08,20,02,43,12.70
2011,08,20,02,44,12.70
2011,08,20,02,45,12.70
2011,08,20,02,46,12.70
2011,08,20,02,47,12.60
2011,08,20,02,48,12.60
2011,08,20,02,49,12.60
2011,08,20,02,50,12.60
2011,08,20,02,51,12.60
2011,08,20,02,52,12.60
2011,08,20,02,53,12.60
2011,08,20,02,54,12.50
2011,08,20,02,55,12.50
2011,08,20,02,56,12.50
2011,08,20,02,57,12.50
2011,08,20,02,58,12.50
2011,08,20,02,59,12.50
2011,08,20,03,00,12.50
2011,08,20,03,01,12.50
2011,08,20,03,02,12.50
2011,08,20,03,03,12.50
2011,08,20,03,04,12.50
2011,08,20,03,05,12.50
2011,08,20,03,06,12.50
2011,08,20,03,07,12.50
2011,08,20,03,08,12.50
2011,08,20,03,09,12.50
2011,08,20,03,10,12.50
2011,08,20,03,11,12.50
2011,08,20,03,12,12.40
2011,08,20,03,13,12.40
2011,08,20,03,14,12.40
2011,08,20,03,15,12.40
2011,08,20,03,16,12.40
2011,08,20,03,17,12.40
2011,08,20,03,18,12.40
2011,08,20,03,19,12.40
2011,08,20,03,20,12.30
2011,08,20,03,21,12.30
2011,08,20,03,22,12.30
2011,08,20,03,23,12.30
2011,08,20,03,24,12.30
2011,08,20,03,25,12.30
2011,08,20,03,26,12.30
2011,08,20,03,27,12.30
2011,08,20,03,28,12.30
2011,08,20,03,29,12.30
2011,08,20,03,30,12.30
2011,08,20,03,31,12.30
2011,08,20,03,32,12.30
2011,08,20,03,33,12.30
2011,08,20,03,34,12.30
2011,08,20,03,35,12.30
2011,08,20,03,36,12.30
2011,08,20,03,37,12.20
2011,08,20,03,38,12.20
2011,08,20,03,39,12.20
2011,08,20,03,40,12.20
2011,08,20,03,41,12.20
2011,08,20,03,42,12.20
2011,08,20,03,43,12.20
2011,08,20,03,44,12.20
2011,08,20,03,45,12.20
2011,08,20,03,46,12.20
2011,08,20,03,47,12.20
2011,08,20,03,48,12.20
2011,08,20,03,49,12.20
2011,08,20,03,50,12.20
2011,08,20,03,51,12.20
2011,08,20,03,52,12.20
2011,08,20,03,53,12.20
2011,08,20,03,54,12.20
2011,08,20,03,55,12.20
2011,08,20,03,56,12.20
2011,08,20,03,57,12.20
2011,08,20,03,58,12.20
2011,08,20,03,59,12.20
2011,08,20,04,00,12.20
2011,08,20,04,01,12.20
2011,08,20,04,02,12.20
2011,08,20,04,03,12.20
2011,08,20,04,04,12.20
2011,08,20,04,05,12.20
2011,08,20,04,06,12.20
2011,08,20,04,07,12.20
2011,08,20,04,08,12.20
2011,08,20,04,09,12.10
2011,08,20,04,10,12.10
2011,08,20,04,11,12.10
2011,08,20,04,12,12.10
2011,08,20,04,13,12.10
2011,08,20,04,14,12.10
2011,08,20,04,15,12.00
2011,08,20,04,16,12.00
2011,08,20,04,17,12.00
2011,08,20,04,18,12.00
2011,08,20,04,19,12.00
2011,08,20,04,20,11.90
2011,08,20,04,21,11.90
2011,08,20,04,22,11.90
2011,08,20,04,23,11.90
2011,08,20,04,24,11.90
2011,08,20,04,25,11.90
2011,08,20,04,26,11.90
2011,08,20,04,27,11.90
2011,08,20,04,28,11.90
2011,08,20,04,29,11.90
2011,08,20,04,30,11.90
2011,08,20,04,31,11.90
2011,08,20,04,32,11.90
2011,08,20,04,33,11.90
2011,08,20,04,34,11.80
2011,08,20,04,35,11.80
2011,08,20,04,36,11.80
2011,08,20,04,37,11.80
2011,08,20,04,38,11.80
2011,08,20,04,39,11.80
2011,08,20,04,40,11.80
2011,08,20,04,41,11.80
2011,08,20,04,42,11.80
2011,08,20,04,43,11.80
2011,08,20,04,44,11.70
2011,08,20,04,45,11.70
2011,08,20,04,46,11.70
2011,08,20,04,47,11.70
2011,08,20,04,48,11.70
2011,08,20,04,49,11.70
2011,08,20,04,50,11.70
2011,08,20,04,51,11.70
2011,08,20,04,52,11.70
2011,08,20,04,53,11.70
2011,08,20,04,54,11.70
2011,08,20,04,55,11.60
2011,08,20,04,56,11.70
2011,08,20,04,57,11.70
2011,08,20,04,58,11.70
2011,08,20,04,59,11.70
2011,08,20,05,00,11.60
2011,08,20,05,01,11.60
2011,08,20,05,02,11.60
2011,08,20,05,03,11.60
2011,08,20,05,04,11.60
2011,08,20,05,05,11.60
2011,08,20,05,06,11.60
2011,08,20,05,07,11.60
2011,08,20,05,08,11.60
2011,08,20,05,09,11.60
2011,08,20,05,10,11.60
2011,08,20,05,11,11.60
2011,08,20,05,12,11.70
2011,08,20,05,13,11.70
2011,08,20,05,14,11.70
2011,08,20,05,15,11.70
2011,08,20,05,16,11.70
2011,08,20,05,17,11.70
2011,08,20,05,18,11.70
2011,08,20,05,19,11.70
2011,08,20,05,20,11.70
2011,08,20,05,21,11.70
2011,08,20,05,22,11.70
2011,08,20,05,23,11.70
2011,08,20,05,24,11.70
2011,08,20,05,25,11.70
2011,08,20,05,26,11.60
2011,08,20,05,27,11.60
2011,08,20,05,28,11.60
2011,08,20,05,29,11.60
2011,08,20,05,30,11.60
2011,08,20,05,31,11.60
2011,08,20,05,32,11.60
2011,08,20,05,33,11.60
2011,08,20,05,34,11.60
2011,08,20,05,35,11.60
2011,08,20,05,36,11.60
2011,08,20,05,37,11.60
2011,08,20,05,38,11.60
2011,08,20,05,39,11.60
2011,08,20,05,40,11.50
2011,08,20,05,41,11.50
2011,08,20,05,42,11.60
2011,08,20,05,43,11.50
2011,08,20,05,44,11.50
2011,08,20,05,45,11.50
2011,08,20,05,46,11.50
2011,08,20,05,47,11.50
2011,08,20,05,48,11.40
2011,08,20,05,49,11.40
2011,08,20,05,50,11.40
2011,08,20,05,51,11.40
2011,08,20,05,52,11.40
2011,08,20,05,53,11.40
2011,08,20,05,54,11.40
2011,08,20,05,55,11.40
2011,08,20,05,56,11.30
2011,08,20,05,57,11.30
2011,08,20,05,58,11.30
2011,08,20,05,59,11.30
2011,08,20,06,00,11.30
2011,08,20,06,01,11.30
2011,08,20,06,02,11.30
2011,08,20,06,03,11.30
2011,08,20,06,04,11.30
2011,08,20,06,05,11.30
2011,08,20,06,06,11.30
2011,08,20,06,07,11.40
2011,08,20,06,08,11.40
2011,08,20,06,09,11.40
2011,08,20,06,10,11.40
2011,08,20,06,11,11.50
2011,08,20,06,12,11.50
2011,08,20,06,13,11.60
2011,08,20,06,14,11.60
2011,08,20,06,15,11.60
2011,08,20,06,16,11.60
2011,08,20,06,17,11.60
2011,08,20,06,18,11.60
2011,08,20,06,19,11.60
2011,08,20,06,20,11.50
2011,08,20,06,21,11.50
2011,08,20,06,22,11.50
2011,08,20,06,23,11.50
2011,08,20,06,24,11.50
2011,08,20,06,25,11.50
2011,08,20,06,26,11.50
2011,08,20,06,27,11.40
2011,08,20,06,28,11.40
2011,08,20,06,29,11.40
2011,08,20,06,30,11.40
2011,08,20,06,31,11.40
2011,08,20,06,32,11.40
2011,08,20,06,33,11.40
2011,08,20,06,34,11.30
2011,08,20,06,35,11.30
2011,08,20,06,36,11.30
2011,08,20,06,37,11.30
2011,08,20,06,38,11.30
2011,08,20,06,39,11.30
2011,08,20,06,40,11.30
2011,08,20,06,41,11.30
2011,08,20,06,42,11.30
2011,08,20,06,43,11.30
2011,08,20,06,44,11.30
2011,08,20,06,45,11.30
2011,08,20,06,46,11.30
2011,08,20,06,47,11.30
2011,08,20,06,48,11.30
2011,08,20,06,49,11.30
2011,08,20,06,50,11.40
2011,08,20,06,51,11.40
2011,08,20,06,52,11.40
2011,08,20,06,53,11.50
2011,08,20,06,54,11.60
2011,08,20,06,55,11.60
2011,08,20,06,56,11.70
2011,08,20,06,57,11.70
2011,08,20,06,58,11.80
2011,08,20,06,59,11.80
2011,08,20,07,00,11.80
2011,08,20,07,01,11.90
2011,08,20,07,02,11.90
2011,08,20,07,03,12.00
2011,08,20,07,04,12.10
2011,08,20,07,05,12.20
2011,08,20,07,06,12.30
2011,08,20,07,07,12.40
2011,08,20,07,08,12.50
2011,08,20,07,09,12.60
2011,08,20,07,10,12.70
2011,08,20,07,11,12.80
2011,08,20,07,12,12.80
2011,08,20,07,13,12.90
2011,08,20,07,14,13.00
2011,08,20,07,15,13.10
2011,08,20,07,16,13.20
2011,08,20,07,17,13.20
2011,08,20,07,18,13.30
2011,08,20,07,19,13.30
2011,08,20,07,20,13.30
2011,08,20,07,21,13.40
2011,08,20,07,22,13.40
2011,08,20,07,23,13.50
2011,08,20,07,24,13.50
2011,08,20,07,25,13.60
2011,08,20,07,26,13.60
2011,08,20,07,27,13.70
2011,08,20,07,28,13.80
2011,08,20,07,29,13.90
2011,08,20,07,30,14.00
2011,08,20,07,31,14.20
2011,08,20,07,32,14.20
2011,08,20,07,33,14.30
2011,08,20,07,34,14.40
2011,08,20,07,35,14.50
2011,08,20,07,36,14.60
2011,08,20,07,37,14.70
2011,08,20,07,38,14.80
2011,08,20,07,39,14.90
2011,08,20,07,40,15.00
2011,08,20,07,41,15.00
2011,08,20,07,42,15.10
2011,08,20,07,43,15.10
2011,08,20,07,44,15.10
2011,08,20,07,45,15.10
2011,08,20,07,46,15.10
2011,08,20,07,47,15.10
2011,08,20,07,48,15.20
2011,08,20,07,49,15.20
2011,08,20,07,50,15.20
2011,08,20,07,51,15.20
2011,08,20,07,52,15.30
2011,08,20,07,53,15.40
2011,08,20,07,54,15.50
2011,08,20,07,55,15.60
2011,08,20,07,56,15.70
2011,08,20,07,57,15.80
2011,08,20,07,58,15.90
2011,08,20,07,59,16.00
2011,08,20,08,00,16.10
2011,08,20,08,01,16.20
2011,08,20,08,02,16.30
2011,08,20,08,03,16.40
2011,08,20,08,04,16.60
2011,08,20,08,05,16.70
2011,08,20,08,06,16.80
2011,08,20,08,07,16.80
2011,08,20,08,08,16.90
2011,08,20,08,09,16.90
2011,08,20,08,10,17.00
2011,08,20,08,11,17.00
2011,08,20,08,12,17.10
2011,08,20,08,13,17.20
2011,08,20,08,14,17.20
2011,08,20,08,15,17.30
2011,08,20,08,16,17.30
2011,08,20,08,17,17.30
2011,08,20,08,18,17.40
2011,08,20,08,19,17.40
2011,08,20,08,20,17.50
2011,08,20,08,21,17.50
2011,08,20,08,22,17.60
2011,08,20,08,23,17.70
2011,08,20,08,24,17.80
2011,08,20,08,25,17.80
2011,08,20,08,26,17.90
2011,08,20,08,27,18.00
2011,08,20,08,28,18.00
2011,08,20,08,29,18.10
2011,08,20,08,30,18.20
2011,08,20,08,31,18.30
2011,08,20,08,32,18.40
2011,08,20,08,33,18.40
2011,08,20,08,34,18.50
2011,08,20,08,35,18.60
2011,08,20,08,36,18.70
2011,08,20,08,37,18.70
2011,08,20,08,38,18.80
2011,08,20,08,39,18.80
2011,08,20,08,40,18.90
2011,08,20,08,41,19.00
2011,08,20,08,42,19.10
2011,08,20,08,43,19.20
2011,08,20,08,44,19.30
2011,08,20,08,45,19.40
2011,08,20,08,46,19.50
2011,08,20,08,47,19.60
2011,08,20,08,48,19.70
2011,08,20,08,49,19.80
2011,08,20,08,50,19.80
2011,08,20,08,51,19.90
2011,08,20,08,52,20.00
2011,08,20,08,53,20.10
2011,08,20,08,54,20.20
2011,08,20,08,55,20.30
2011,08,20,08,56,20.40
2011,08,20,08,57,20.50
2011,08,20,08,58,20.60
2011,08,20,08,59,20.60
2011,08,20,09,00,20.70
2011,08,20,09,01,20.80
2011,08,20,09,02,20.90
2011,08,20,09,03,21.00
2011,08,20,09,04,21.10
2011,08,20,09,05,21.20
2011,08,20,09,06,21.20
2011,08,20,09,07,21.30
2011,08,20,09,08,21.30
2011,08,20,09,09,21.30
2011,08,20,09,10,21.20
2011,08,20,09,11,21.20
2011,08,20,09,12,21.10
2011,08,20,09,13,21.10
2011,08,20,09,14,21.10
2011,08,20,09,15,21.20
2011,08,20,09,16,21.20
2011,08,20,09,17,21.30
2011,08,20,09,18,21.30
2011,08,20,09,19,21.40
2011,08,20,09,20,21.40
2011,08,20,09,21,21.50
2011,08,20,09,22,21.50
2011,08,20,09,23,21.60
2011,08,20,09,24,21.60
2011,08,20,09,25,21.60
2011,08,20,09,26,21.70
2011,08,20,09,27,21.70
2011,08,20,09,28,21.80
2011,08,20,09,29,21.80
2011,08,20,09,30,21.90
2011,08,20,09,31,22.00
2011,08,20,09,32,22.00
2011,08,20,09,33,22.10
2011,08,20,09,34,22.10
2011,08,20,09,35,22.20
2011,08,20,09,36,22.30
2011,08,20,09,37,22.40
2011,08,20,09,38,22.40
2011,08,20,09,39,22.40
2011,08,20,09,40,22.30
2011,08,20,09,41,22.40
2011,08,20,09,42,22.30
2011,08,20,09,43,22.30
2011,08,20,09,44,22.30
2011,08,20,09,45,22.20
2011,08,20,09,46,22.20
2011,08,20,09,47,22.20
2011,08,20,09,48,22.20
2011,08,20,09,49,22.20
2011,08,20,09,50,22.20
2011,08,20,09,51,22.20
2011,08,20,09,52,22.20
2011,08,20,09,53,22.30
2011,08,20,09,54,22.40
2011,08,20,09,55,22.50
2011,08,20,09,56,22.50
2011,08,20,09,57,22.50
2011,08,20,09,58,22.50
2011,08,20,09,59,22.60
2011,08,20,10,00,22.60
2011,08,20,10,01,22.60
2011,08,20,10,02,22.70
2011,08,20,10,03,22.80
2011,08,20,10,04,22.80
2011,08,20,10,05,22.80
2011,08,20,10,06,22.90
2011,08,20,10,07,22.90
2011,08,20,10,08,23.00
2011,08,20,10,09,23.00
2011,08,20,10,10,23.10
2011,08,20,10,11,23.10
2011,08,20,10,12,23.00
2011,08,20,10,13,23.00
2011,08,20,10,14,23.00
2011,08,20,10,15,23.00
2011,08,20,10,16,23.10
2011,08,20,10,17,23.10
2011,08,20,10,18,23.10
2011,08,20,10,19,23.20
2011,08,20,10,20,23.20
2011,08,20,10,21,23.20
2011,08,20,10,22,23.30
2011,08,20,10,23,23.30
2011,08,20,10,24,23.30
2011,08,20,10,25,23.30
2011,08,20,10,26,23.30
2011,08,20,10,27,23.30
2011,08,20,10,28,23.30
2011,08,20,10,29,23.30
2011,08,20,10,30,23.30
2011,08,20,10,31,23.40
2011,08,20,10,32,23.50
2011,08,20,10,33,23.60
2011,08,20,10,34,23.60
2011,08,20,10,35,23.50
2011,08,20,10,36,23.50
2011,08,20,10,37,23.50
2011,08,20,10,38,23.50
2011,08,20,10,39,23.60
2011,08,20,10,40,23.70
2011,08,20,10,41,23.70
2011,08,20,10,42,23.70
2011,08,20,10,43,23.70
2011,08,20,10,44,23.70
2011,08,20,10,45,23.80
2011,08,20,10,46,23.90
2011,08,20,10,47,23.90
2011,08,20,10,48,23.80
2011,08,20,10,49,23.80
2011,08,20,10,50,23.80
2011,08,20,10,51,23.80
2011,08,20,10,52,23.90
2011,08,20,10,53,24.00
2011,08,20,10,54,24.10
2011,08,20,10,55,24.10
2011,08,20,10,56,24.10
2011,08,20,10,57,24.20
2011,08,20,10,58,24.20
2011,08,20,10,59,24.30
2011,08,20,11,00,24.30
2011,08,20,11,01,24.30
2011,08,20,11,02,24.20
2011,08,20,11,03,24.20
2011,08,20,11,04,24.20
2011,08,20,11,05,24.30
2011,08,20,11,06,24.40
2011,08,20,11,07,24.50
2011,08,20,11,08,24.60
2011,08,20,11,09,24.60
2011,08,20,11,10,24.60
2011,08,20,11,11,24.50
2011,08,20,11,12,24.50
2011,08,20,11,13,24.50
2011,08,20,11,14,24.60
2011,08,20,11,15,24.70
2011,08,20,11,16,24.80
2011,08,20,11,17,24.90
2011,08,20,11,18,25.00
2011,08,20,11,19,25.10
2011,08,20,11,20,25.20
2011,08,20,11,21,25.30
2011,08,20,11,22,25.30
2011,08,20,11,23,25.20
2011,08,20,11,24,25.20
2011,08,20,11,25,25.10
2011,08,20,11,26,25.00
2011,08,20,11,27,25.00
2011,08,20,11,28,24.90
2011,08,20,11,29,24.80
2011,08,20,11,30,24.80
2011,08,20,11,31,24.70
2011,08,20,11,32,24.80
2011,08,20,11,33,24.80
2011,08,20,11,34,24.80
2011,08,20,11,35,24.80
2011,08,20,11,36,24.90
2011,08,20,11,37,24.90
2011,08,20,11,38,24.90
2011,08,20,11,39,24.90
2011,08,20,11,40,25.00
2011,08,20,11,41,25.00
2011,08,20,11,42,25.00
2011,08,20,11,43,25.10
2011,08,20,11,44,25.10
2011,08,20,11,45,25.10
2011,08,20,11,46,25.20
2011,08,20,11,47,25.30
2011,08,20,11,48,25.30
2011,08,20,11,49,25.30
2011,08,20,11,50,25.30
2011,08,20,11,51,25.30
2011,08,20,11,52,25.40
2011,08,20,11,53,25.40
2011,08,20,11,54,25.40
2011,08,20,11,55,25.40
2011,08,20,11,56,25.30
2011,08,20,11,57,25.40
2011,08,20,11,58,25.40
2011,08,20,11,59,25.40
2011,08,20,12,00,25.30
2011,08,20,12,01,25.30
2011,08,20,12,02,25.30
2011,08,20,12,03,25.20
2011,08,20,12,04,25.20
2011,08,20,12,05,25.20
2011,08,20,12,06,25.30
2011,08,20,12,07,25.40
2011,08,20,12,08,25.50
2011,08,20,12,09,25.60
2011,08,20,12,10,25.60
2011,08,20,12,11,25.70
2011,08,20,12,12,25.70
2011,08,20,12,13,25.70
2011,08,20,12,14,25.80
2011,08,20,12,15,25.80
2011,08,20,12,16,25.90
2011,08,20,12,17,25.90
2011,08,20,12,18,25.90
2011,08,20,12,19,25.80
2011,08,20,12,20,25.70
2011,08,20,12,21,25.70
2011,08,20,12,22,25.80
2011,08,20,12,23,25.80
2011,08,20,12,24,25.80
2011,08,20,12,25,25.80
2011,08,20,12,26,25.90
2011,08,20,12,27,26.00
2011,08,20,12,28,26.10
2011,08,20,12,29,26.20
2011,08,20,12,30,26.30
2011,08,20,12,31,26.30
2011,08,20,12,32,26.30
2011,08,20,12,33,26.30
2011,08,20,12,34,26.30
2011,08,20,12,35,26.30
2011,08,20,12,36,26.30
2011,08,20,12,37,26.20
2011,08,20,12,38,26.30
2011,08,20,12,39,26.30
2011,08,20,12,40,26.50
2011,08,20,12,41,26.60
2011,08,20,12,42,26.70
2011,08,20,12,43,26.90
2011,08,20,12,44,26.90
2011,08,20,12,45,27.00
2011,08,20,12,46,27.10
2011,08,20,12,47,27.10
2011,08,20,12,48,27.20
2011,08,20,12,49,27.20
2011,08,20,12,50,27.30
2011,08,20,12,51,27.30
2011,08,20,12,52,27.30
2011,08,20,12,53,27.30
2011,08,20,12,54,27.30
2011,08,20,12,55,27.30
2011,08,20,12,56,27.20
2011,08,20,12,57,27.10
2011,08,20,12,58,27.00
2011,08,20,12,59,26.90
2011,08,20,13,00,26.90
2011,08,20,13,01,26.80
2011,08,20,13,02,26.90
2011,08,20,13,03,26.90
2011,08,20,13,04,26.80
2011,08,20,13,05,26.80
2011,08,20,13,06,26.90
2011,08,20,13,07,26.90
2011,08,20,13,08,27.00
2011,08,20,13,09,27.10
2011,08,20,13,10,27.20
2011,08,20,13,11,27.20
2011,08,20,13,12,27.20
2011,08,20,13,13,27.10
2011,08,20,13,14,27.10
2011,08,20,13,15,27.10
2011,08,20,13,16,27.00
2011,08,20,13,17,27.00
2011,08,20,13,18,26.90
2011,08,20,13,19,26.90
2011,08,20,13,20,26.90
2011,08,20,13,21,26.90
2011,08,20,13,22,26.90
2011,08,20,13,23,26.90
2011,08,20,13,24,27.00
2011,08,20,13,25,27.10
2011,08,20,13,26,27.20
2011,08,20,13,27,27.30
2011,08,20,13,28,27.30
2011,08,20,13,29,27.40
2011,08,20,13,30,27.40
2011,08,20,13,31,27.40
2011,08,20,13,32,27.40
2011,08,20,13,33,27.40
2011,08,20,13,34,27.40
2011,08,20,13,35,27.40
2011,08,20,13,36,27.40
2011,08,20,13,37,27.50
2011,08,20,13,38,27.50
2011,08,20,13,39,27.50
2011,08,20,13,40,27.40
2011,08,20,13,41,27.30
2011,08,20,13,42,27.20
2011,08,20,13,43,27.20
2011,08,20,13,44,27.20
2011,08,20,13,45,27.20
2011,08,20,13,46,27.20
2011,08,20,13,47,27.20
2011,08,20,13,48,27.20
2011,08,20,13,49,27.20
2011,08,20,13,50,27.20
2011,08,20,13,51,27.20
2011,08,20,13,52,27.20
2011,08,20,13,53,27.20
2011,08,20,13,54,27.20
2011,08,20,13,55,27.10
2011,08,20,13,56,27.00
2011,08,20,13,57,27.00
2011,08,20,13,58,26.90
2011,08,20,13,59,26.90
2011,08,20,14,00,26.90
2011,08,20,14,01,26.90
2011,08,20,14,02,26.90
2011,08,20,14,03,26.90
2011,08,20,14,04,26.90
2011,08,20,14,05,26.90
2011,08,20,14,06,26.80
2011,08,20,14,07,26.80
2011,08,20,14,08,26.80
2011,08,20,14,09,26.90
2011,08,20,14,10,26.90
2011,08,20,14,11,26.90
2011,08,20,14,12,27.00
2011,08,20,14,13,27.00
2011,08,20,14,14,27.10
2011,08,20,14,15,27.10
2011,08,20,14,16,27.20
2011,08,20,14,17,27.30
2011,08,20,14,18,27.30
2011,08,20,14,19,27.20
2011,08,20,14,20,27.10
2011,08,20,14,21,27.00
2011,08,20,14,22,26.90
2011,08,20,14,23,26.80
2011,08,20,14,24,26.70
2011,08,20,14,25,26.70
2011,08,20,14,26,26.70
2011,08,20,14,27,26.70
2011,08,20,14,28,26.70
2011,08,20,14,29,26.60
2011,08,20,14,30,26.60
2011,08,20,14,31,26.70
2011,08,20,14,32,26.80
2011,08,20,14,33,26.90
2011,08,20,14,34,26.90
2011,08,20,14,35,26.90
2011,08,20,14,36,26.90
2011,08,20,14,37,26.90
2011,08,20,14,38,26.80
2011,08,20,14,39,26.80
2011,08,20,14,40,26.80
2011,08,20,14,41,26.80
2011,08,20,14,42,26.80
2011,08,20,14,43,26.80
2011,08,20,14,44,26.80
2011,08,20,14,45,26.70
2011,08,20,14,46,26.60
2011,08,20,14,47,26.60
2011,08,20,14,48,26.60
2011,08,20,14,49,26.60
2011,08,20,14,50,26.60
2011,08,20,14,51,26.60
2011,08,20,14,52,26.60
2011,08,20,14,53,26.60
2011,08,20,14,54,26.50
2011,08,20,14,55,26.40
2011,08,20,14,56,26.30
2011,08,20,14,57,26.30
2011,08,20,14,58,26.30
2011,08,20,14,59,26.30
2011,08,20,15,00,26.30
2011,08,20,15,01,26.30
2011,08,20,15,02,26.30
2011,08,20,15,03,26.40
2011,08,20,15,04,26.40
2011,08,20,15,05,26.30
2011,08,20,15,06,26.40
2011,08,20,15,07,26.40
2011,08,20,15,08,26.40
2011,08,20,15,09,26.50
2011,08,20,15,10,26.50
2011,08,20,15,11,26.60
2011,08,20,15,12,26.60
2011,08,20,15,13,26.70
2011,08,20,15,14,26.70
2011,08,20,15,15,26.70
2011,08,20,15,16,26.60
2011,08,20,15,17,26.60
2011,08,20,15,18,26.60
2011,08,20,15,19,26.60
2011,08,20,15,20,26.70
2011,08,20,15,21,26.80
2011,08,20,15,22,26.80
2011,08,20,15,23,26.80
2011,08,20,15,24,26.80
2011,08,20,15,25,26.80
2011,08,20,15,26,26.80
2011,08,20,15,27,26.80
2011,08,20,15,28,26.80
2011,08,20,15,29,26.90
2011,08,20,15,30,26.90
2011,08,20,15,31,27.00
2011,08,20,15,32,27.10
2011,08,20,15,33,27.20
2011,08,20,15,34,27.20
2011,08,20,15,35,27.30
2011,08,20,15,36,27.20
2011,08,20,15,37,27.30
2011,08,20,15,38,27.30
2011,08,20,15,39,27.30
2011,08,20,15,40,27.40
2011,08,20,15,41,27.50
2011,08,20,15,42,27.60
2011,08,20,15,43,27.70
2011,08,20,15,44,27.70
2011,08,20,15,45,27.80
2011,08,20,15,46,27.80
2011,08,20,15,47,27.80
2011,08,20,15,48,27.80
2011,08,20,15,49,27.70
2011,08,20,15,50,27.70
2011,08,20,15,51,27.70
2011,08,20,15,52,27.70
2011,08,20,15,53,27.60
2011,08,20,15,54,27.60
2011,08,20,15,55,27.60
2011,08,20,15,56,27.60
2011,08,20,15,57,27.60
2011,08,20,15,58,27.60
2011,08,20,15,59,27.50
2011,08,20,16,00,27.50
2011,08,20,16,01,27.40
2011,08,20,16,02,27.40
2011,08,20,16,03,27.40
2011,08,20,16,04,27.30
2011,08,20,16,05,27.30
2011,08,20,16,06,27.20
2011,08,20,16,07,27.20
2011,08,20,16,08,27.20
2011,08,20,16,09,27.30
2011,08,20,16,10,27.30
2011,08,20,16,11,27.20
2011,08,20,16,12,27.30
2011,08,20,16,13,27.30
2011,08,20,16,14,27.40
2011,08,20,16,15,27.40
2011,08,20,16,16,27.40
2011,08,20,16,17,27.30
2011,08,20,16,18,27.30
2011,08,20,16,19,27.30
2011,08,20,16,20,27.30
2011,08,20,16,21,27.30
2011,08,20,16,22,27.30
2011,08,20,16,23,27.30
2011,08,20,16,24,27.30
2011,08,20,16,25,27.30
2011,08,20,16,26,27.30
2011,08,20,16,27,27.30
2011,08,20,16,28,27.40
2011,08,20,16,29,27.40
2011,08,20,16,30,27.30
2011,08,20,16,31,27.30
2011,08,20,16,32,27.40
2011,08,20,16,33,27.40
2011,08,20,16,34,27.50
2011,08,20,16,35,27.50
2011,08,20,16,36,27.50
2011,08,20,16,37,27.40
2011,08,20,16,38,27.30
2011,08,20,16,39,27.30
2011,08,20,16,40,27.20
2011,08,20,16,41,27.20
2011,08,20,16,42,27.20
2011,08,20,16,43,27.20
2011,08,20,16,44,27.30
2011,08,20,16,45,27.30
2011,08,20,16,46,27.20
2011,08,20,16,47,27.10
2011,08,20,16,48,27.10
2011,08,20,16,49,27.10
2011,08,20,16,50,27.10
2011,08,20,16,51,27.20
2011,08,20,16,52,27.20
2011,08,20,16,53,27.20
2011,08,20,16,54,27.20
2011,08,20,16,55,27.20
2011,08,20,16,56,27.20
2011,08,20,16,57,27.10
2011,08,20,16,58,27.20
2011,08,20,16,59,27.20
2011,08,20,17,00,27.20
2011,08,20,17,01,27.20
2011,08,20,17,02,27.20
2011,08,20,17,03,27.20
2011,08,20,17,04,27.30
2011,08,20,17,05,27.30
2011,08,20,17,06,27.40
2011,08,20,17,07,27.50
2011,08,20,17,08,27.60
2011,08,20,17,09,27.60
2011,08,20,17,10,27.50
2011,08,20,17,11,27.50
2011,08,20,17,12,27.50
2011,08,20,17,13,27.50
2011,08,20,17,14,27.60
2011,08,20,17,15,27.70
2011,08,20,17,16,27.70
2011,08,20,17,17,27.70
2011,08,20,17,18,27.80
2011,08,20,17,19,27.80